| time (UTC) | temp C | wind direction | speed KPH | gust KPH | rain 1hr cm | rain 24hr cm | rain mn cm | humidity % | barometer mb |
| 20260510102117 | 12 | 45 | 9.7 | 20.9 | 0.33 | 0.71 | 0.71 | 89 | 1007.2 |
| 20260510100117 | 12 | 45 | 9.7 | 22.5 | 0.28 | 0.56 | 0.56 | 89 | 1007.3 |
| 20260510094117 | 12 | 45 | 8.0 | 20.9 | 0.20 | 0.46 | 0.46 | 88 | 1007.4 |
| 20260510092116 | 12 | 67 | 8.0 | 17.7 | 0.18 | 0.36 | 0.36 | 89 | 1007.4 |
| 20260510090116 | 12 | 67 | 6.4 | 16.1 | 0.08 | 0.28 | 0.28 | 88 | 1007.5 |
| 20260510084116 | 12 | 45 | 8.0 | 17.7 | 0.08 | 0.25 | 0.25 | 88 | 1007.5 |
| 20260510082116 | 12 | 67 | 8.0 | 17.7 | 0.03 | 0.18 | 0.18 | 88 | 1007.7 |
| 20260510080116 | 12 | 67 | 8.0 | 19.3 | 0.08 | 0.18 | 0.18 | 88 | 1007.7 |
| 20260510074116 | 12 | 45 | 6.4 | 17.7 | 0.13 | 0.18 | 0.18 | 88 | 1007.7 |
| 20260510072116 | 13 | 45 | 6.4 | 16.1 | 0.13 | 0.15 | 0.15 | 87 | 1007.6 |
| 20260510070116 | 13 | 45 | 4.8 | 12.9 | 0.08 | 0.08 | 0.08 | 87 | 1007.7 |
| 20260510064116 | 13 | 22 | 1.6 | 12.9 | 0.00 | 0.03 | 0.03 | 87 | 1007.8 |
| 20260510062116 | 13 | 45 | 1.6 | 6.4 | 0.00 | 0.00 | 0.00 | 86 | 1007.6 |
| 20260510060116 | 13 | 67 | 3.2 | 11.3 | 0.00 | 0.00 | 0.00 | 86 | 1007.2 |
| 20260510054116 | 13 | 45 | 4.8 | 12.9 | 0.00 | 0.00 | 0.00 | 86 | 1007.0 |
| 20260510052116 | 13 | 67 | 4.8 | 11.3 | 0.00 | 0.00 | 0.00 | 85 | 1007.1 |
| 20260510050116 | 13 | 157 | 1.6 | 6.4 | 0.00 | 0.00 | 0.00 | 85 | 1007.2 |
| 20260510044116 | 13 | 112 | 4.8 | 12.9 | 0.00 | 0.00 | 0.00 | 85 | 1006.9 |
| 20260510042116 | 13 | 67 | 6.4 | 19.3 | 0.00 | 0.00 | 0.00 | 84 | 1006.7 |
| 20260510040116 | 13 | 135 | 6.4 | 14.5 | 0.00 | 0.00 | 0.00 | 84 | 1006.9 |
| 20260510034116 | 13 | 67 | 11.3 | 30.6 | 0.00 | 0.00 | 0.00 | 83 | 1006.5 |
| 20260510032116 | 13 | 45 | 9.7 | 20.9 | 0.00 | 0.00 | 0.00 | 83 | 1006.5 |
| 20260510030116 | 13 | 67 | 6.4 | 17.7 | 0.00 | 0.08 | 0.00 | 83 | 1006.5 |
| 20260510024116 | 13 | 67 | 9.7 | 19.3 | 0.00 | 0.13 | 0.00 | 83 | 1006.4 |
| 20260510022116 | 13 | 67 | 11.3 | 22.5 | 0.00 | 0.28 | 0.00 | 83 | 1006.5 |
| 20260510020116 | 13 | 67 | 8.0 | 20.9 | 0.00 | 0.36 | 0.00 | 84 | 1006.8 |
| 20260510014116 | 13 | 67 | 9.7 | 19.3 | 0.00 | 0.46 | 0.00 | 84 | 1007.2 |
| 20260510012116 | 13 | 67 | 8.0 | 17.7 | 0.00 | 0.69 | 0.00 | 84 | 1007.6 |
| 20260510010116 | 13 | 90 | 6.4 | 16.1 | 0.00 | 0.79 | 0.00 | 84 | 1007.8 |
| 20260510004116 | 13 | 67 | 6.4 | 17.7 | 0.00 | 0.81 | 0.00 | 84 | 1008.0 |
| 20260510002116 | 13 | 67 | 6.4 | 14.5 | 0.00 | 0.81 | 0.00 | 84 | 1008.2 |
| 20260510000118 | 13 | 90 | 6.4 | 17.7 | 0.00 | 0.84 | 0.00 | 83 | 1008.4 |
| 20260509234118 | 14 | 90 | 8.0 | 17.7 | 0.00 | 0.86 | 0.00 | 83 | 1008.5 |
| 20260509230117 | 14 | 67 | 8.0 | 17.7 | 0.00 | 0.94 | 0.00 | 82 | 1009.0 |
| 20260509224117 | 15 | 90 | 6.4 | 19.3 | 0.00 | 0.94 | 0.00 | 82 | 1009.2 |
| 20260509222117 | 15 | 67 | 8.0 | 17.7 | 0.00 | 0.94 | 0.00 | 81 | 1009.2 |
| 20260509220117 | 15 | 90 | 8.0 | 17.7 | 0.00 | 0.94 | 0.00 | 81 | 1009.2 |
| 20260509214116 | 15 | 67 | 9.7 | 20.9 | 0.00 | 0.94 | 0.94 | 81 | 1009.3 |
| 20260509212116 | 16 | 90 | 6.4 | 14.5 | 0.00 | 0.94 | 0.94 | 80 | 1009.3 |
| 20260509210116 | 16 | 67 | 6.4 | 16.1 | 0.00 | 0.94 | 0.94 | 79 | 1009.3 |
| 20260509204115 | 16 | 45 | 8.0 | 17.7 | 0.00 | 0.94 | 0.94 | 78 | 1009.3 |
| 20260509202115 | 17 | 67 | 6.4 | 17.7 | 0.00 | 0.94 | 0.94 | 77 | 1009.4 |
| 20260509200115 | 17 | 67 | 8.0 | 20.9 | 0.00 | 0.94 | 0.94 | 76 | 1009.1 |
| 20260509194118 | 17 | 90 | 8.0 | 19.3 | 0.00 | 0.94 | 0.94 | 76 | 1008.9 |
| 20260509192117 | 18 | 67 | 6.4 | 16.1 | 0.00 | 0.94 | 0.94 | 76 | 1008.8 |
| 20260509190117 | 18 | 67 | 8.0 | 19.3 | 0.00 | 0.94 | 0.94 | 76 | 1008.7 |
| 20260509184117 | 19 | 45 | 8.0 | 17.7 | 0.00 | 0.94 | 0.94 | 76 | 1008.5 |
| 20260509182117 | 20 | 67 | 8.0 | 17.7 | 0.00 | 0.94 | 0.94 | 75 | 1008.2 |
| 20260509180117 | 20 | 67 | 8.0 | 19.3 | 0.00 | 0.94 | 0.94 | 74 | 1008.2 |
| 20260509174117 | 21 | 67 | 6.4 | 16.1 | 0.00 | 0.94 | 0.94 | 73 | 1008.0 |
| 20260509172117 | 21 | 67 | 4.8 | 14.5 | 0.00 | 0.94 | 0.94 | 72 | 1008.0 |
| 20260509170117 | 21 | 67 | 8.0 | 20.9 | 0.00 | 0.94 | 0.94 | 72 | 1008.1 |
| 20260509164117 | 21 | 90 | 8.0 | 17.7 | 0.00 | 0.94 | 0.94 | 72 | 1008.2 |
| 20260509162117 | 21 | 67 | 8.0 | 20.9 | 0.00 | 0.94 | 0.94 | 72 | 1008.2 |
| 20260509160117 | 21 | 67 | 6.4 | 22.5 | 0.00 | 0.94 | 0.94 | 73 | 1008.3 |
| 20260509154117 | 21 | 67 | 8.0 | 19.3 | 0.00 | 0.94 | 0.94 | 73 | 1008.5 |
| 20260509152117 | 20 | 90 | 9.7 | 19.3 | 0.00 | 0.94 | 0.94 | 74 | 1008.6 |
| 20260509150117 | 21 | 90 | 8.0 | 22.5 | 0.00 | 0.94 | 0.94 | 75 | 1008.7 |
| 20260509144117 | 20 | 90 | 8.0 | 17.7 | 0.00 | 0.94 | 0.94 | 76 | 1009.0 |
| 20260509142117 | 20 | 90 | 3.2 | 11.3 | 0.00 | 0.94 | 0.94 | 77 | 1009.2 |
| 20260509140117 | 19 | 90 | 9.7 | 19.3 | 0.00 | 0.94 | 0.94 | 75 | 1009.3 |
| 20260509134117 | 19 | 90 | 9.7 | 17.7 | 0.00 | 0.94 | 0.94 | 77 | 1009.4 |
| 20260509132117 | 18 | 112 | 6.4 | 14.5 | 0.00 | 0.94 | 0.94 | 77 | 1009.6 |
| 20260509130117 | 18 | 112 | 9.7 | 22.5 | 0.00 | 0.94 | 0.94 | 75 | 1009.7 |
| 20260509124117 | 18 | 90 | 11.3 | 24.1 | 0.00 | 0.94 | 0.94 | 75 | 1009.3 |
| 20260509122117 | 18 | 112 | 11.3 | 24.1 | 0.00 | 0.94 | 0.94 | 75 | 1009.5 |
| 20260509120117 | 18 | 90 | 12.9 | 30.6 | 0.00 | 0.94 | 0.94 | 74 | 1009.6 |
| 20260509114117 | 18 | 112 | 9.7 | 24.1 | 0.00 | 0.94 | 0.94 | 75 | 1009.8 |
| 20260509112116 | 18 | 90 | 9.7 | 20.9 | 0.00 | 0.94 | 0.94 | 74 | 1009.8 |
| 20260509110116 | 18 | 112 | 6.4 | 20.9 | 0.00 | 0.94 | 0.94 | 74 | 1009.9 |
| 20260509104117 | 18 | 112 | 12.9 | 27.4 | 0.00 | 0.94 | 0.94 | 75 | 1009.6 |